Regional Weather Roundup
Issued by NWS

Home | Current Version | Previous Version | Text Only | Print | Product List | Glossary On
Versions: 1 2 3 4 5 6 7 8 9 10 11 12 13 14 15 16 17 18 19 20 21 22 23 24 25 26 27 28 29 30 31 32 33 34 35 36 37 38 39 40 41 42 43 44 45 46 47 48 49 50
000
ASUS45 KABQ 230201
RWRNM
NEW MEXICO REGIONAL WEATHER ROUNDUP
NATIONAL WEATHER SERVICE ALBUQUERQUE NM
800 PM MDT SAT JUL 22 2017

NOTE: "FAIR" MEANS FEW OR NO CLOUDS BELOW 12,000 FEET AGL WITH NO
       SIGNIFICANT WEATHER OR OBSTRUCTIONS TO VISION.

      THIS PRODUCT IS RELEASED AS TWO VERSIONS.  ONE VERSION NEAR
      THE TOP OF THE HOUR CONTAINING PRELIMINARY DATA FROM ALBUQUERQUE
      AND OTHER STATIONS.  A FINAL VERSION WITH ADDITIONAL DATA IS
      ISSUED ABOUT 10 MINUTES AFTER THE HOUR.

NMZ501-503-504-510>518-230300-
NORTHWEST PLATEAU/NORTHCENTRAL MOUNTAINS

CITY           SKY/WX    TMP DP  RH WIND       PRES   REMARKS
FARMINGTON     MOCLDY    72  55  55 E15       30.16R
LOS ALAMOS     FAIR      69  45  41 N21G35    30.28R
SANTA FE       FAIR      72  52  49 N28G36    30.18R
TAOS           FAIR      64  46  52 N10       30.32S
ANGEL FIRE     FAIR      57  53  84 CALM      30.42F

$$
NMZ402-403-502-505>509-230300-
WESTCENTRAL MOUNTAINS/SOUTHWEST MOUNTAINS

CITY           SKY/WX    TMP DP  RH WIND       PRES   REMARKS
GALLUP         CLOUDY    73  59  61 CALM      30.19R
GRANTS         MOCLDY    76  46  35 N16G26    30.21R
SILVER CITY    FAIR      75  59  58 NW7       30.13R

$$
NMZ407-409-411-412-230300-
SOUTHERN DESERTS

CITY           SKY/WX    TMP DP  RH WIND       PRES   REMARKS
DEMING         CLOUDY    74  66  76 E13G26    30.07R
LAS CRUCES     LGT RAIN  70  66  85 SW15      30.08R
ALAMOGORDO     FAIR      81  59  47 SW15G26   30.03R
T OR C         FAIR      83  58  42 S10       30.05R

$$
NMZ519>523-230300-
CENTRAL VALLEYS/CENTRAL HIGHLANDS

CITY           SKY/WX    TMP DP  RH WIND       PRES   REMARKS
ALBUQUERQUE    TSTM      71  64  78 SE7       30.12R
DOUBLE EAGLE   MOCLDY    82  50  32 VRB7      30.14R
CLINES CORNERS CLOUDY    73  46  38 SE10      30.26R
BELEN          NOT AVBL
SOCORRO        TSTM      66  62  89 NW9       30.13R

$$
NMZ524>526-539-540-230300-
SOUTHCENTRAL MOUNTAINS

CITY           SKY/WX    TMP DP  RH WIND       PRES   REMARKS
RUIDOSO        FAIR      72  50  46 S7        30.24R

$$
NMZ527>531-230300-
NORTHEAST HIGHLANDS/NORTHEAST PLAINS

CITY           SKY/WX    TMP DP  RH WIND       PRES   REMARKS
LAS VEGAS      FAIR      70  46  42 NE16G25   30.26R
RATON          FAIR      64  57  78 CALM      30.25S
CLAYTON        FAIR      77  48  35 NW23      30.13R

$$
NMZ532>537-230300-
EASTCENTRAL PLAINS

CITY           SKY/WX    TMP DP  RH WIND       PRES   REMARKS
SANTA ROSA     CLOUDY    81  52  36 E6G18     30.10R
TUCUMCARI      MOCLDY    89  51  27 SE7       30.00R
CANNON AFB     NOT AVBL
CLOVIS AIRPORT FAIR      74  64  71 SW5       30.03R

$$
NMZ028-029-538-230300-
SOUTHEAST PLAINS

CITY           SKY/WX    TMP DP  RH WIND       PRES   REMARKS
ROSWELL        NOT AVBL
ARTESIA        FAIR      86  55  35 SE9       29.98R
CARLSBAD       FAIR      82  61  48 SW9       29.95R
HOBBS          FAIR      81  61  50 S15       30.03R


$$




USA.gov is the U.S. government's official web portal to all federal, state and local government web resources and services.